Location: Shenandoah County Park
(38.9356°N, 78.4524°W)
Time: 06:30:57
(UTC-04:00)

Vanguard 1 Rocket - Pass Details

Date: 12 February 2023
Orbit: 652 x 4223 km, 34.3° (Epoch: 26 March)

Event Time Altitude Azimuth Distance (km) Brightness Sun altitude
Rises 13:52:31 0° 274° (W) 4,481 11.2 33.9°
Reaches altitude 10° 13:54:55 10° 271° (W) 3,813 11.0 33.7°
Maximum altitude 14:05:23 64° 193° (SSW) 2,654 10.9 32.8°
Drops below altitude 10° 14:25:46 10° 118° (ESE) 6,904 11.9 30.7°
Sets 14:32:01 0° 116° (ESE) 8,239 12.2 30.0°
